KE7JL Weather Reports


time (UTC)temp
C
wind
direction
speed
KPH
gust
KPH
rain 1hr
cm
rain 24hr
cm
rain mn
cm
humidity
%
barometer
mb
20260507043334 13 165 0.0 0.0 0.00 0.00 0.00 84 1020.0
20260507040407 14 165 0.0 0.0 0.00 0.00 0.00 82 1020.0
20260507033348 14 178 0.0 0.0 0.00 0.00 0.00 83 1019.7
20260507030351 14 201 0.0 0.0 0.00 0.00 0.00 82 1019.5
20260507023339 14 202 0.0 0.0 0.00 0.00 0.00 83 1019.4
20260507020403 14 184 0.0 0.0 0.00 0.00 0.00 83 1019.3
20260507013343 14 181 0.0 0.0 0.00 0.00 0.00 83 1019.3
20260507010353 14 205 0.0 0.0 0.00 0.00 0.00 85 1019.4
20260507003333 14 194 0.0 0.0 0.00 0.00 0.00 84 1019.5
20260507000400 14 194 0.0 0.0 0.00 0.00 0.00 83 1019.5
20260506233348 14 192 0.0 0.0 0.00 0.00 0.00 83 1019.5
20260506230413 14 186 0.0 0.0 0.00 0.00 0.00 81 1019.5
20260506223344 14 196 0.0 0.0 0.00 0.00 0.00 79 1019.6
20260506220407 14 184 0.0 0.0 0.00 0.00 0.00 81 1019.9
20260506213332 14 192 0.0 0.0 0.00 0.00 0.00 82 1019.9
20260506210401 13 189 0.0 0.0 0.00 0.00 0.00 82 1019.9
20260506203348 13 203 0.0 0.0 0.00 0.00 0.00 85 1019.8
20260506200404 13 188 0.0 0.0 0.00 0.00 0.00 87 1019.7
20260506193329 12 198 0.0 0.0 0.00 0.00 0.00 92 1019.6
20260506190407 12 209 0.0 0.0 0.00 0.00 0.00 92 1019.5
20260506183331 12 158 0.0 0.0 0.00 0.00 0.00 93 1019.5
20260506180404 12 202 0.0 0.0 0.00 0.00 0.00 95 1019.4
20260506173338 12 211 0.0 0.0 0.00 0.00 0.00 94 1019.3
20260506170407 12 194 0.0 0.0 0.00 0.00 0.00 92 1019.4
20260506163326 12 200 0.0 0.0 0.00 0.00 0.00 93 1019.2
20260506160358 12 173 0.0 0.0 0.00 0.00 0.00 93 1018.7
20260506153345 12 207 0.0 0.0 0.00 0.00 0.00 94 1019.0
20260506150356 12 207 0.0 0.0 0.00 0.00 0.00 93 1018.7
20260506143342 12 192 0.0 0.0 0.00 0.00 0.00 92 1018.8
20260506140358 12 190 0.0 0.0 0.00 0.00 0.00 91 1018.5
20260506133345 13 180 0.0 0.0 0.00 0.00 0.00 92 1018.4
20260506130424 12 179 0.0 0.0 0.00 0.00 0.00 91 1018.0
20260506123330 13 175 0.0 0.0 0.00 0.00 0.00 91 1017.9
20260506120348 13 191 0.0 0.0 0.00 0.00 0.00 90 1017.7
20260506113332 13 172 0.0 0.0 0.00 0.00 0.00 90 1017.5
20260506110412 13 179 0.0 0.0 0.00 0.00 0.00 90 1017.2
20260506103340 13 159 0.0 0.0 0.00 0.00 0.00 90 1017.1
20260506100358 13 183 0.0 0.0 0.00 0.00 0.00 89 1016.9
20260506093346 13 181 0.0 0.0 0.00 0.00 0.00 89 1016.6
20260506090402 13 186 0.0 0.0 0.00 0.00 0.00 89 1016.4
20260506083328 13 174 0.0 0.0 0.00 0.00 0.00 89 1016.1
20260506080349 13 129 0.0 0.0 0.00 0.00 0.00 92 1015.9
20260506073335 13 193 0.0 0.0 0.00 0.00 0.00 92 1015.7
20260506070418 13 193 0.0 0.0 0.00 0.00 0.00 91 1015.6
20260506060402 13 193 0.0 0.0 0.00 0.00 0.00 90 1015.1
20260506050400 14 193 0.0 0.0 0.00 0.00 0.00 88 1014.5